Time,TemperatureF,DewpointF,PressureIn,WindDirection,WindDirectionDegrees,WindSpeedMPH,WindSpeedGustMPH,Humidity,HourlyPrecipIn,Conditions,Clouds,dailyrainin,SolarRadiationWatts/m^2,SoftwareType,DateUTC
2013-02-18 00:00:00,15.7,0.4,29.61,WNW,284,8.0,25.0,50,0.00,,OVC021,0.00,0.00,VWS V14.01,2013-02-18 05:00:00,
2013-02-18 00:05:00,15.8,0.0,29.61,WNW,300,12.0,26.0,49,0.00,,OVC021,0.00,0.00,VWS V14.01,2013-02-18 05:05:00,
2013-02-18 00:10:00,15.8,0.5,29.61,WNW,302,24.0,26.0,50,0.00,,OVC021,0.00,0.00,VWS V14.01,2013-02-18 05:10:00,
2013-02-18 00:15:00,15.7,-0.1,29.62,WNW,294,11.0,25.0,49,0.00,,OVC021,0.00,0.00,VWS V14.01,2013-02-18 05:15:00,
2013-02-18 00:20:00,15.7,-0.1,29.62,WNW,291,9.0,25.0,49,0.00,,OVC021,0.00,0.00,VWS V14.01,2013-02-18 05:20:00,
2013-02-18 00:25:00,15.7,0.4,29.62,NW,325,9.0,24.0,50,0.00,,OVC021,0.00,0.00,VWS V14.01,2013-02-18 05:25:00,
2013-02-18 00:30:00,15.6,0.3,29.62,WNW,286,10.0,30.0,50,0.00,,OVC021,0.00,0.00,VWS V14.01,2013-02-18 05:30:00,
2013-02-18 00:35:00,15.4,0.5,29.62,WNW,285,7.0,15.0,51,0.00,,OVC021,0.00,0.00,VWS V14.01,2013-02-18 05:35:00,
2013-02-18 00:40:00,15.3,0.0,29.62,NW,317,11.0,21.0,50,0.00,,OVC021,0.00,0.00,VWS V14.01,2013-02-18 05:40:00,
2013-02-18 00:45:00,15.3,0.4,29.62,NNW,333,12.0,16.0,51,0.00,,OVC021,0.00,0.00,VWS V14.01,2013-02-18 05:45:00,
2013-02-18 00:50:00,15.2,0.3,29.63,NW,307,11.0,22.0,51,0.00,,OVC021,0.00,0.00,VWS V14.01,2013-02-18 05:50:00,
2013-02-18 00:55:00,15.0,0.2,29.63,NW,311,9.0,24.0,51,0.00,,OVC021,0.00,0.00,VWS V14.01,2013-02-18 05:55:00,
2013-02-18 01:00:00,15.0,0.2,29.63,WNW,294,17.0,24.0,51,0.00,,OVC021,0.00,0.00,VWS V14.01,2013-02-18 06:00:00,
2013-02-18 01:05:00,14.9,0.1,29.63,WNW,287,5.0,17.0,51,0.00,,OVC021,0.00,0.00,VWS V14.01,2013-02-18 06:05:00,
2013-02-18 01:10:00,14.9,0.1,29.63,NW,305,7.0,18.0,51,0.00,,OVC021,0.00,0.00,VWS V14.01,2013-02-18 06:10:00,
2013-02-18 01:15:00,14.9,0.1,29.64,WNW,285,11.0,24.0,51,0.00,,OVC021,0.00,0.00,VWS V14.01,2013-02-18 06:15:00,
2013-02-18 01:20:00,14.8,0.0,29.64,West,273,10.0,21.0,51,0.00,,OVC021,0.00,0.00,VWS V14.01,2013-02-18 06:20:00,
2013-02-18 01:25:00,14.8,0.0,29.64,West,273,8.0,23.0,51,0.00,,OVC021,0.00,0.00,VWS V14.01,2013-02-18 06:25:00,
2013-02-18 01:30:00,14.7,0.3,29.64,WSW,252,15.0,20.0,52,0.00,,OVC021,0.00,0.00,VWS V14.01,2013-02-18 06:30:00,
2013-02-18 01:35:00,14.6,0.2,29.64,WNW,290,13.0,19.0,52,0.00,,OVC021,0.00,0.00,VWS V14.01,2013-02-18 06:35:00,
2013-02-18 01:40:00,14.6,-0.2,29.65,WNW,286,5.0,23.0,51,0.00,,OVC021,0.00,0.00,VWS V14.01,2013-02-18 06:40:00,
2013-02-18 01:45:00,14.6,-0.2,29.65,West,271,9.0,19.0,51,0.00,,OVC021,0.00,0.00,VWS V14.01,2013-02-18 06:45:00,
2013-02-18 01:50:00,14.6,0.2,29.65,WNW,297,9.0,18.0,52,0.00,,OVC021,0.00,0.00,VWS V14.01,2013-02-18 06:50:00,
2013-02-18 01:55:00,14.6,0.2,29.65,NNW,330,7.0,21.0,52,0.00,,OVC021,0.00,0.00,VWS V14.01,2013-02-18 06:55:00,
2013-02-18 02:00:00,14.6,-0.2,29.65,West,264,10.0,19.0,51,0.00,,OVC021,0.00,0.00,VWS V14.01,2013-02-18 07:00:00,
2013-02-18 02:05:00,14.5,-0.3,29.66,NW,311,11.0,22.0,51,0.00,,OVC021,0.00,0.00,VWS V14.01,2013-02-18 07:05:00,
2013-02-18 02:10:00,14.5,-0.3,29.66,North,355,12.0,19.0,51,0.00,,OVC021,0.00,0.00,VWS V14.01,2013-02-18 07:10:00,
2013-02-18 02:15:00,14.5,-0.3,29.66,WNW,286,8.0,21.0,51,0.00,,OVC021,0.00,0.00,VWS V14.01,2013-02-18 07:15:00,
2013-02-18 02:20:00,14.4,0.0,29.66,WSW,257,11.0,18.0,52,0.00,,OVC021,0.00,0.00,VWS V14.01,2013-02-18 07:20:00,
2013-02-18 02:25:00,14.3,-0.1,29.66,West,277,8.0,16.0,52,0.00,,OVC021,0.00,0.00,VWS V14.01,2013-02-18 07:25:00,
2013-02-18 02:30:00,14.2,-0.2,29.66,WNW,301,10.0,20.0,52,0.00,,OVC021,0.00,0.00,VWS V14.01,2013-02-18 07:30:00,
2013-02-18 02:35:00,14.2,-0.2,29.66,NW,323,11.0,20.0,52,0.00,,OVC021,0.00,0.00,VWS V14.01,2013-02-18 07:35:00,
2013-02-18 02:40:00,14.1,-0.3,29.67,WNW,289,10.0,17.0,52,0.00,,OVC021,0.00,0.00,VWS V14.01,2013-02-18 07:40:00,
2013-02-18 02:45:00,14.2,-0.2,29.67,WNW,297,14.0,21.0,52,0.00,,OVC021,0.00,0.00,VWS V14.01,2013-02-18 07:45:00,
2013-02-18 02:50:00,14.1,-0.3,29.67,WNW,294,6.0,16.0,52,0.00,,OVC021,0.00,0.00,VWS V14.01,2013-02-18 07:50:00,
2013-02-18 02:55:00,14.0,0.0,29.68,NNW,329,7.0,18.0,53,0.00,,OVC021,0.00,0.00,VWS V14.01,2013-02-18 07:55:00,
2013-02-18 03:00:00,14.0,0.0,29.68,WNW,294,8.0,16.0,53,0.00,,OVC021,0.00,0.00,VWS V14.01,2013-02-18 08:00:00,
2013-02-18 03:05:00,14.0,-0.4,29.68,West,281,9.0,23.0,52,0.00,,OVC021,0.00,0.00,VWS V14.01,2013-02-18 08:05:00,
2013-02-18 03:10:00,14.0,-0.4,29.69,WNW,289,14.0,19.0,52,0.00,,OVC021,0.00,0.00,VWS V14.01,2013-02-18 08:10:00,
2013-02-18 03:15:00,14.0,-0.4,29.69,NW,308,8.0,20.0,52,0.00,,OVC021,0.00,0.00,VWS V14.01,2013-02-18 08:15:00,
2013-02-18 03:20:00,13.9,-0.1,29.69,West,278,15.0,19.0,53,0.00,,OVC021,0.00,0.00,VWS V14.01,2013-02-18 08:20:00,
2013-02-18 03:25:00,13.9,-0.1,29.69,West,271,10.0,17.0,53,0.00,,OVC021,0.00,0.00,VWS V14.01,2013-02-18 08:25:00,
2013-02-18 03:30:00,13.9,-0.1,29.69,West,277,7.0,19.0,53,0.00,,OVC021,0.00,0.00,VWS V14.01,2013-02-18 08:30:00,
2013-02-18 03:35:00,13.8,-0.2,29.70,West,279,12.0,20.0,53,0.00,,OVC021,0.00,0.00,VWS V14.01,2013-02-18 08:35:00,
2013-02-18 03:40:00,13.8,-0.2,29.70,NW,309,10.0,21.0,53,0.00,,OVC021,0.00,0.00,VWS V14.01,2013-02-18 08:40:00,
2013-02-18 03:45:00,13.9,-0.1,29.70,NW,305,11.0,17.0,53,0.00,,OVC021,0.00,0.00,VWS V14.01,2013-02-18 08:45:00,
2013-02-18 03:50:00,13.9,-0.1,29.70,WNW,288,7.0,17.0,53,0.00,,OVC021,0.00,0.00,VWS V14.01,2013-02-18 08:50:00,
2013-02-18 03:55:00,13.8,-0.2,29.71,NW,305,8.0,14.0,53,0.00,,OVC021,0.00,0.00,VWS V14.01,2013-02-18 08:55:00,
2013-02-18 04:00:00,13.8,-0.2,29.71,WNW,294,4.0,19.0,53,0.00,,OVC021,0.00,0.00,VWS V14.01,2013-02-18 09:00:00,
2013-02-18 04:05:00,13.7,-0.2,29.72,West,277,8.0,16.0,53,0.00,,OVC021,0.00,0.00,VWS V14.01,2013-02-18 09:05:00,
2013-02-18 04:10:00,13.7,-0.2,29.72,WSW,255,12.0,18.0,53,0.00,,OVC021,0.00,0.00,VWS V14.01,2013-02-18 09:10:00,
2013-02-18 04:15:00,13.8,-0.2,29.72,WNW,302,20.0,20.0,53,0.00,,OVC021,0.00,0.00,VWS V14.01,2013-02-18 09:15:00,
2013-02-18 04:20:00,13.8,-0.2,29.73,WNW,290,12.0,20.0,53,0.00,,OVC021,0.00,0.00,VWS V14.01,2013-02-18 09:20:00,
2013-02-18 04:25:00,13.7,-0.2,29.73,West,271,8.0,14.0,53,0.00,,OVC021,0.00,0.00,VWS V14.01,2013-02-18 09:25:00,
2013-02-18 04:30:00,13.7,-0.2,29.73,WNW,301,9.0,18.0,53,0.00,,OVC021,0.00,0.00,VWS V14.01,2013-02-18 09:30:00,
2013-02-18 04:35:00,13.6,0.1,29.73,West,274,7.0,16.0,54,0.00,,OVC021,0.00,0.00,VWS V14.01,2013-02-18 09:35:00,
2013-02-18 04:40:00,13.6,0.1,29.74,NW,312,6.0,14.0,54,0.00,,OVC021,0.00,0.00,VWS V14.01,2013-02-18 09:40:00,
2013-02-18 04:45:00,13.6,0.1,29.74,WNW,286,8.0,14.0,54,0.00,,OVC021,0.00,0.00,VWS V14.01,2013-02-18 09:45:00,
2013-02-18 04:50:00,13.6,0.1,29.74,WNW,288,7.0,17.0,54,0.00,,OVC021,0.00,0.00,VWS V14.01,2013-02-18 09:50:00,
2013-02-18 04:55:00,13.5,0.0,29.75,WNW,294,5.0,18.0,54,0.00,,OVC021,0.00,0.00,VWS V14.01,2013-02-18 09:55:00,
2013-02-18 05:00:00,13.6,0.1,29.75,NW,316,13.0,13.0,54,0.00,,OVC021,0.00,0.00,VWS V14.01,2013-02-18 10:00:00,
2013-02-18 05:05:00,13.6,0.1,29.75,West,269,8.0,19.0,54,0.00,,OVC021,0.00,0.00,VWS V14.01,2013-02-18 10:05:00,
2013-02-18 05:10:00,13.6,0.1,29.76,WNW,287,9.0,18.0,54,0.00,,OVC021,0.00,0.00,VWS V14.01,2013-02-18 10:10:00,
2013-02-18 05:15:00,13.5,0.0,29.76,WNW,297,10.0,13.0,54,0.00,,OVC021,0.00,0.00,VWS V14.01,2013-02-18 10:15:00,
2013-02-18 05:20:00,13.4,-0.1,29.76,NNW,327,9.0,13.0,54,0.00,,OVC021,0.00,0.00,VWS V14.01,2013-02-18 10:20:00,
2013-02-18 05:25:00,13.5,0.0,29.76,WNW,296,5.0,17.0,54,0.00,,OVC021,0.00,0.00,VWS V14.01,2013-02-18 10:25:00,
2013-02-18 05:30:00,13.4,-0.1,29.77,WNW,286,6.0,12.0,54,0.00,,OVC021,0.00,0.00,VWS V14.01,2013-02-18 10:30:00,
2013-02-18 05:35:00,13.5,0.0,29.77,WNW,290,4.0,22.0,54,0.00,,OVC021,0.00,0.00,VWS V14.01,2013-02-18 10:35:00,
2013-02-18 05:40:00,13.4,-0.1,29.77,NW,313,8.0,15.0,54,0.00,,OVC021,0.00,0.00,VWS V14.01,2013-02-18 10:40:00,
2013-02-18 05:45:00,13.5,0.0,29.77,NW,307,6.0,15.0,54,0.00,,OVC021,0.00,0.00,VWS V14.01,2013-02-18 10:45:00,
2013-02-18 05:50:00,13.4,-0.1,29.78,NW,306,11.0,16.0,54,0.00,,OVC021,0.00,0.00,VWS V14.01,2013-02-18 10:50:00,
2013-02-18 05:55:00,13.4,-0.1,29.78,WNW,295,7.0,17.0,54,0.00,,OVC021,0.00,0.00,VWS V14.01,2013-02-18 10:55:00,
2013-02-18 06:00:00,13.5,0.0,29.79,NW,319,7.0,17.0,54,0.00,,OVC021,0.00,0.00,VWS V14.01,2013-02-18 11:00:00,
2013-02-18 06:01:00,13.5,0.0,29.79,WNW,302,14.0,21.0,54,0.00,,OVC021,0.00,0.00,VWS V14.01,2013-02-18 11:01:00,
2013-02-18 06:03:00,13.5,0.0,29.79,WNW,285,4.0,21.0,54,0.00,,OVC021,0.00,0.00,VWS V14.01,2013-02-18 11:03:00,
2013-02-18 06:05:00,13.6,0.1,29.79,WNW,301,6.0,21.0,54,0.00,,OVC021,0.00,0.00,VWS V14.01,2013-02-18 11:05:00,
2013-02-18 06:08:00,13.4,-0.1,29.79,NW,316,10.0,15.0,54,0.00,,OVC021,0.00,0.00,VWS V14.01,2013-02-18 11:08:00,
2013-02-18 06:10:00,13.4,-0.1,29.79,WNW,303,8.0,15.0,54,0.00,,OVC021,0.00,0.00,VWS V14.01,2013-02-18 11:10:00,
2013-02-18 06:13:00,13.4,-0.1,29.80,WNW,300,8.0,17.0,54,0.00,,OVC021,0.00,0.00,VWS V14.01,2013-02-18 11:13:00,
2013-02-18 06:15:00,13.4,-0.1,29.80,WNW,300,8.0,17.0,54,0.00,,OVC021,0.00,0.00,VWS V14.01,2013-02-18 11:15:00,
2013-02-18 06:18:00,13.5,0.0,29.80,WNW,283,17.0,17.0,54,0.00,,OVC021,0.00,0.00,VWS V14.01,2013-02-18 11:18:00,
2013-02-18 06:20:00,13.5,0.0,29.80,West,271,13.0,20.0,54,0.00,,OVC021,0.00,0.00,VWS V14.01,2013-02-18 11:20:00,
2013-02-18 06:23:00,13.5,0.0,29.80,WNW,282,8.0,21.0,54,0.00,,OVC021,0.00,0.00,VWS V14.01,2013-02-18 11:23:00,
2013-02-18 06:25:00,13.5,0.0,29.80,WNW,282,8.0,21.0,54,0.00,,OVC021,0.00,0.00,VWS V14.01,2013-02-18 11:25:00,
2013-02-18 06:28:00,13.4,-0.1,29.81,NW,305,5.0,9.0,54,0.00,,OVC021,0.00,0.00,VWS V14.01,2013-02-18 11:28:00,
2013-02-18 06:30:00,13.4,-0.1,29.81,WNW,290,9.0,18.0,54,0.00,,OVC021,0.00,0.00,VWS V14.01,2013-02-18 11:30:00,
2013-02-18 06:34:00,13.4,-0.1,29.81,WNW,291,12.0,18.0,54,0.00,,OVC021,0.00,0.00,VWS V14.01,2013-02-18 11:34:00,
2013-02-18 06:35:00,13.4,-0.5,29.81,NW,304,7.0,20.0,53,0.00,,OVC021,0.00,0.00,VWS V14.01,2013-02-18 11:35:00,
2013-02-18 06:39:00,13.5,-0.4,29.82,WSW,254,12.0,12.0,53,0.00,,OVC021,0.00,0.00,VWS V14.01,2013-02-18 11:39:00,
2013-02-18 06:40:00,13.5,-0.4,29.82,WNW,292,11.0,20.0,53,0.00,,OVC021,0.00,0.00,VWS V14.01,2013-02-18 11:40:00,
2013-02-18 06:44:00,13.4,-0.5,29.82,West,271,12.0,18.0,53,0.00,,OVC021,0.00,5.00,VWS V14.01,2013-02-18 11:44:00,
2013-02-18 06:45:00,13.4,-0.5,29.82,West,281,18.0,22.0,53,0.00,,OVC021,0.00,5.00,VWS V14.01,2013-02-18 11:45:00,
2013-02-18 06:49:00,13.3,-0.2,29.82,West,280,9.0,13.0,54,0.00,,OVC021,0.00,9.00,VWS V14.01,2013-02-18 11:49:00,
2013-02-18 06:50:00,13.3,-0.6,29.82,NW,304,8.0,18.0,53,0.00,,OVC021,0.00,9.00,VWS V14.01,2013-02-18 11:50:00,
2013-02-18 06:54:00,13.4,-0.5,29.82,West,267,9.0,10.0,53,0.00,,OVC021,0.00,12.00,VWS V14.01,2013-02-18 11:54:00,
2013-02-18 06:55:00,13.3,-0.6,29.82,WNW,286,8.0,17.0,53,0.00,,OVC021,0.00,11.00,VWS V14.01,2013-02-18 11:55:00,
2013-02-18 06:59:00,13.4,-0.5,29.83,West,281,13.0,16.0,53,0.00,,OVC021,0.00,19.00,VWS V14.01,2013-02-18 11:59:00,
2013-02-18 07:00:00,13.4,-0.5,29.82,WNW,282,7.0,16.0,53,0.00,,OVC021,0.00,18.00,VWS V14.01,2013-02-18 12:00:00,
2013-02-18 07:04:00,13.4,-0.5,29.83,WNW,284,7.0,22.0,53,0.00,,OVC021,0.00,28.00,VWS V14.01,2013-02-18 12:04:00,
2013-02-18 07:05:00,13.4,-0.5,29.83,WNW,298,18.0,19.0,53,0.00,,OVC021,0.00,26.00,VWS V14.01,2013-02-18 12:05:00,
2013-02-18 07:09:00,13.5,-0.4,29.83,WNW,292,12.0,12.0,53,0.00,,OVC021,0.00,49.00,VWS V14.01,2013-02-18 12:09:00,
2013-02-18 07:10:00,13.5,-0.4,29.83,NW,311,10.0,22.0,53,0.00,,OVC021,0.00,46.00,VWS V14.01,2013-02-18 12:10:00,
2013-02-18 07:14:00,13.6,-0.3,29.84,NW,311,18.0,18.0,53,0.00,,OVC021,0.00,62.00,VWS V14.01,2013-02-18 12:14:00,
2013-02-18 07:15:00,13.6,-0.3,29.83,West,265,6.0,17.0,53,0.00,,OVC021,0.00,60.00,VWS V14.01,2013-02-18 12:15:00,
2013-02-18 07:19:00,13.8,-0.2,29.84,NW,306,4.0,13.0,53,0.00,,OVC021,0.00,81.00,VWS V14.01,2013-02-18 12:19:00,
2013-02-18 07:20:00,13.8,-0.2,29.84,WNW,283,8.0,19.0,53,0.00,,OVC021,0.00,76.00,VWS V14.01,2013-02-18 12:20:00,
2013-02-18 07:24:00,14.0,-0.4,29.84,NW,305,9.0,13.0,52,0.00,,OVC021,0.00,98.00,VWS V14.01,2013-02-18 12:24:00,
2013-02-18 07:25:00,13.9,-0.5,29.84,WNW,296,5.0,17.0,52,0.00,,OVC021,0.00,93.00,VWS V14.01,2013-02-18 12:25:00,
2013-02-18 07:30:00,14.0,-0.4,29.84,WNW,294,7.0,11.0,52,0.00,,OVC021,0.00,116.00,VWS V14.01,2013-02-18 12:30:00,
2013-02-18 07:35:00,14.1,-0.3,29.85,WNW,285,6.0,16.0,52,0.00,,OVC021,0.00,134.00,VWS V14.01,2013-02-18 12:35:00,
2013-02-18 07:40:00,14.3,-0.5,29.85,WNW,284,8.0,12.0,51,0.00,,OVC021,0.00,151.00,VWS V14.01,2013-02-18 12:40:00,
2013-02-18 07:45:00,14.4,-0.4,29.85,West,275,8.0,13.0,51,0.00,,OVC021,0.00,171.00,VWS V14.01,2013-02-18 12:45:00,
2013-02-18 07:50:00,14.5,-0.3,29.86,West,259,10.0,14.0,51,0.00,,OVC021,0.00,188.00,VWS V14.01,2013-02-18 12:50:00,
2013-02-18 07:55:00,14.7,-0.1,29.86,WNW,290,10.0,19.0,51,0.00,,OVC021,0.00,207.00,VWS V14.01,2013-02-18 12:55:00,
2013-02-18 08:00:00,14.9,0.1,29.86,WNW,288,6.0,13.0,51,0.00,,OVC021,0.00,225.00,VWS V14.01,2013-02-18 13:00:00,
2013-02-18 08:05:00,15.1,-0.2,29.86,WNW,288,7.0,15.0,50,0.00,,OVC021,0.00,243.00,VWS V14.01,2013-02-18 13:05:00,
2013-02-18 08:10:00,15.3,0.0,29.86,WNW,291,13.0,18.0,50,0.00,,OVC021,0.00,257.00,VWS V14.01,2013-02-18 13:10:00,
2013-02-18 08:15:00,15.5,0.2,29.86,WNW,288,7.0,18.0,50,0.00,,OVC021,0.00,264.00,VWS V14.01,2013-02-18 13:15:00,
2013-02-18 08:16:00,15.6,-0.2,29.86,WNW,301,14.0,23.0,49,0.00,,OVC021,0.00,271.00,VWS V14.01,2013-02-18 13:16:00,
2013-02-18 08:20:00,15.8,0.0,29.86,WNW,287,14.0,23.0,49,0.00,,OVC021,0.00,278.00,VWS V14.01,2013-02-18 13:20:00,
2013-02-18 08:21:00,15.9,0.1,29.86,West,262,17.0,19.0,49,0.00,,OVC021,0.00,285.00,VWS V14.01,2013-02-18 13:21:00,
2013-02-18 08:25:00,16.0,0.2,29.86,NW,305,8.0,22.0,49,0.00,,OVC021,0.00,292.00,VWS V14.01,2013-02-18 13:25:00,
2013-02-18 08:26:00,16.2,0.4,29.87,WNW,286,14.0,14.0,49,0.00,,OVC021,0.00,301.00,VWS V14.01,2013-02-18 13:26:00,
2013-02-18 08:30:00,16.4,0.6,29.87,WNW,296,15.0,20.0,49,0.00,,OVC021,0.00,306.00,VWS V14.01,2013-02-18 13:30:00,
2013-02-18 08:31:00,16.6,0.3,29.87,WNW,303,12.0,18.0,48,0.00,,OVC021,0.00,315.00,VWS V14.01,2013-02-18 13:31:00,
2013-02-18 08:35:00,16.7,0.4,29.87,NW,325,10.0,18.0,48,0.00,,OVC021,0.00,320.00,VWS V14.01,2013-02-18 13:35:00,
2013-02-18 08:36:00,16.9,0.6,29.87,WNW,284,9.0,20.0,48,0.00,,OVC021,0.00,329.00,VWS V14.01,2013-02-18 13:36:00,
2013-02-18 08:40:00,17.1,0.8,29.87,NW,323,11.0,20.0,48,0.00,,OVC021,0.00,334.00,VWS V14.01,2013-02-18 13:40:00,
2013-02-18 08:41:00,17.2,0.9,29.87,WSW,258,15.0,20.0,48,0.00,,OVC021,0.00,345.00,VWS V14.01,2013-02-18 13:41:00,
2013-02-18 08:45:00,17.3,0.5,29.88,West,277,11.0,27.0,47,0.00,,OVC021,0.00,350.00,VWS V14.01,2013-02-18 13:45:00,
2013-02-18 08:46:00,17.4,0.6,29.87,NNW,342,7.0,21.0,47,0.00,,OVC021,0.00,357.00,VWS V14.01,2013-02-18 13:46:00,
2013-02-18 08:50:00,17.6,1.3,29.88,WNW,292,11.0,21.0,48,0.00,,OVC021,0.00,364.00,VWS V14.01,2013-02-18 13:50:00,
2013-02-18 08:51:00,17.6,0.3,29.88,WNW,297,6.0,26.0,46,0.00,,OVC021,0.00,373.00,VWS V14.01,2013-02-18 13:51:00,
2013-02-18 08:55:00,17.7,0.9,29.88,NW,309,20.0,26.0,47,0.00,,OVC021,0.00,378.00,VWS V14.01,2013-02-18 13:55:00,
2013-02-18 08:57:00,17.9,1.1,29.88,West,260,14.0,26.0,47,0.00,,OVC021,0.00,385.00,VWS V14.01,2013-02-18 13:57:00,
2013-02-18 09:00:00,17.9,0.6,29.88,NW,313,13.0,26.0,46,0.00,,OVC021,0.00,388.00,VWS V14.01,2013-02-18 14:00:00,
2013-02-18 09:02:00,18.1,0.8,29.88,NW,319,9.0,22.0,46,0.00,,OVC021,0.00,397.00,VWS V14.01,2013-02-18 14:02:00,
2013-02-18 09:05:00,18.2,0.9,29.89,West,267,32.0,36.0,46,0.00,,OVC021,0.00,401.00,VWS V14.01,2013-02-18 14:05:00,
2013-02-18 09:07:00,18.2,0.9,29.88,NNW,329,14.0,36.0,46,0.00,,OVC021,0.00,411.00,VWS V14.01,2013-02-18 14:07:00,
2013-02-18 09:10:00,18.2,0.9,29.89,NNW,331,21.0,36.0,46,0.00,,OVC021,0.00,411.00,VWS V14.01,2013-02-18 14:10:00,
2013-02-18 09:12:00,18.4,1.1,29.89,NW,309,10.0,30.0,46,0.00,,OVC021,0.00,422.00,VWS V14.01,2013-02-18 14:12:00,
2013-02-18 09:15:00,18.5,1.2,29.89,WNW,292,18.0,30.0,46,0.00,,OVC021,0.00,425.00,VWS V14.01,2013-02-18 14:15:00,
2013-02-18 09:17:00,18.8,1.0,29.89,West,277,18.0,24.0,45,0.00,,OVC021,0.00,436.00,VWS V14.01,2013-02-18 14:17:00,
2013-02-18 09:20:00,18.8,1.0,29.89,WNW,290,19.0,33.0,45,0.00,,OVC021,0.00,438.00,VWS V14.01,2013-02-18 14:20:00,
2013-02-18 09:22:00,19.0,1.2,29.89,NNW,342,15.0,25.0,45,0.00,,OVC021,0.00,446.00,VWS V14.01,2013-02-18 14:22:00,
2013-02-18 09:25:00,19.1,1.3,29.89,WNW,291,12.0,25.0,45,0.00,,OVC021,0.00,448.00,VWS V14.01,2013-02-18 14:25:00,
2013-02-18 09:27:00,19.2,0.9,29.89,NW,317,16.0,26.0,44,0.00,,OVC021,0.00,457.00,VWS V14.01,2013-02-18 14:27:00,
2013-02-18 09:30:00,19.2,0.9,29.89,NW,319,22.0,26.0,44,0.00,,OVC021,0.00,461.00,VWS V14.01,2013-02-18 14:30:00,
2013-02-18 09:32:00,19.5,1.1,29.89,WNW,289,16.0,22.0,44,0.00,,OVC021,0.00,468.00,VWS V14.01,2013-02-18 14:32:00,
2013-02-18 09:35:00,19.5,1.1,29.89,WNW,292,7.0,22.0,44,0.00,,OVC021,0.00,468.00,VWS V14.01,2013-02-18 14:35:00,
2013-02-18 09:37:00,19.8,1.4,29.90,NW,317,15.0,19.0,44,0.00,,OVC021,0.00,478.00,VWS V14.01,2013-02-18 14:37:00,
2013-02-18 09:40:00,19.8,1.4,29.90,NNW,348,13.0,20.0,44,0.00,,OVC021,0.00,478.00,VWS V14.01,2013-02-18 14:40:00,
2013-02-18 09:42:00,19.8,0.9,29.89,NW,319,14.0,28.0,43,0.00,,OVC021,0.00,487.00,VWS V14.01,2013-02-18 14:42:00,
2013-02-18 09:45:00,19.8,0.9,29.89,West,271,18.0,28.0,43,0.00,,OVC021,0.00,487.00,VWS V14.01,2013-02-18 14:45:00,
2013-02-18 09:48:00,19.8,0.4,29.89,WNW,288,13.0,27.0,42,0.00,,OVC021,0.00,499.00,VWS V14.01,2013-02-18 14:48:00,
2013-02-18 09:50:00,19.8,0.4,29.89,WNW,296,13.0,27.0,42,0.00,,OVC021,0.00,499.00,VWS V14.01,2013-02-18 14:50:00,
2013-02-18 09:53:00,20.2,0.8,29.89,NW,317,15.0,30.0,42,0.00,,OVC021,0.00,508.00,VWS V14.01,2013-02-18 14:53:00,
2013-02-18 09:55:00,20.2,0.8,29.89,NW,321,12.0,30.0,42,0.00,,OVC021,0.00,508.00,VWS V14.01,2013-02-18 14:55:00,
2013-02-18 09:58:00,20.5,0.6,29.89,NNW,328,12.0,21.0,41,0.00,,OVC021,0.00,519.00,VWS V14.01,2013-02-18 14:58:00,
2013-02-18 10:00:00,20.5,0.6,29.89,NNW,335,15.0,21.0,41,0.00,,OVC021,0.00,519.00,VWS V14.01,2013-02-18 15:00:00,
2013-02-18 10:03:00,20.7,0.7,29.89,WNW,298,16.0,24.0,41,0.00,,OVC021,0.00,526.00,VWS V14.01,2013-02-18 15:03:00,
2013-02-18 10:05:00,20.7,0.7,29.89,WNW,294,18.0,24.0,41,0.00,,OVC021,0.00,526.00,VWS V14.01,2013-02-18 15:05:00,
2013-02-18 10:08:00,20.7,0.2,29.89,NW,304,12.0,27.0,40,0.00,,OVC021,0.00,533.00,VWS V14.01,2013-02-18 15:08:00,
2013-02-18 10:10:00,20.7,0.2,29.89,NW,304,12.0,27.0,40,0.00,,OVC021,0.00,533.00,VWS V14.01,2013-02-18 15:10:00,
2013-02-18 10:13:00,21.0,-0.1,29.90,WNW,286,19.0,27.0,39,0.00,,OVC021,0.00,540.00,VWS V14.01,2013-02-18 15:13:00,
2013-02-18 10:15:00,21.0,-0.1,29.90,WNW,286,19.0,27.0,39,0.00,,OVC021,0.00,540.00,VWS V14.01,2013-02-18 15:15:00,
2013-02-18 10:18:00,21.3,0.2,29.90,WNW,290,9.0,23.0,39,0.00,,OVC021,0.00,547.00,VWS V14.01,2013-02-18 15:18:00,
2013-02-18 10:20:00,21.3,0.2,29.90,WNW,290,9.0,23.0,39,0.00,,OVC021,0.00,547.00,VWS V14.01,2013-02-18 15:20:00,
2013-02-18 10:23:00,21.8,0.7,29.90,NW,313,9.0,9.0,39,0.00,,OVC021,0.00,555.00,VWS V14.01,2013-02-18 15:23:00,
2013-02-18 10:25:00,21.8,0.1,29.90,WNW,296,9.0,23.0,38,0.00,,OVC021,0.00,555.00,VWS V14.01,2013-02-18 15:25:00,
2013-02-18 10:28:00,21.9,-0.9,29.90,NNW,344,16.0,26.0,36,0.00,,OVC021,0.00,564.00,VWS V14.01,2013-02-18 15:28:00,
2013-02-18 10:30:00,21.9,-0.4,29.90,NW,307,19.0,24.0,37,0.00,,OVC021,0.00,564.00,VWS V14.01,2013-02-18 15:30:00,
2013-02-18 10:33:00,22.1,-0.8,29.90,NNW,331,11.0,16.0,36,0.00,,OVC021,0.00,568.00,VWS V14.01,2013-02-18 15:33:00,
2013-02-18 10:35:00,22.1,-0.2,29.90,NW,309,13.0,26.0,37,0.00,,OVC021,0.00,568.00,VWS V14.01,2013-02-18 15:35:00,
2013-02-18 10:39:00,22.6,-0.9,29.90,WNW,298,20.0,26.0,35,0.00,,OVC021,0.00,577.00,VWS V14.01,2013-02-18 15:39:00,
2013-02-18 10:40:00,22.6,-0.3,29.90,NW,304,19.0,21.0,36,0.00,,OVC021,0.00,577.00,VWS V14.01,2013-02-18 15:40:00,
2013-02-18 10:44:00,22.6,-0.9,29.90,WNW,290,10.0,17.0,35,0.00,,OVC021,0.00,582.00,VWS V14.01,2013-02-18 15:44:00,
2013-02-18 10:45:00,22.5,-1.6,29.90,NW,323,14.0,30.0,34,0.00,,OVC021,0.00,582.00,VWS V14.01,2013-02-18 15:45:00,
2013-02-18 10:49:00,23.0,-1.2,29.90,WSW,248,18.0,22.0,34,0.00,,OVC021,0.00,585.00,VWS V14.01,2013-02-18 15:49:00,
2013-02-18 10:50:00,23.0,-1.2,29.90,WNW,285,22.0,23.0,34,0.00,,OVC021,0.00,585.00,VWS V14.01,2013-02-18 15:50:00,
2013-02-18 10:54:00,23.4,1.0,29.90,NNW,343,21.0,21.0,37,0.00,,OVC021,0.00,591.00,VWS V14.01,2013-02-18 15:54:00,
2013-02-18 10:55:00,23.3,-1.5,29.90,NW,319,13.0,23.0,33,0.00,,OVC021,0.00,591.00,VWS V14.01,2013-02-18 15:55:00,
2013-02-18 10:59:00,23.7,-0.6,29.89,NW,313,11.0,18.0,34,0.00,,OVC021,0.00,596.00,VWS V14.01,2013-02-18 15:59:00,
2013-02-18 11:00:00,23.5,-1.4,29.90,West,273,17.0,22.0,33,0.00,,OVC021,0.00,596.00,VWS V14.01,2013-02-18 16:00:00,
2013-02-18 11:05:00,24.2,-0.7,29.90,NW,321,10.0,21.0,33,0.00,,OVC021,0.00,599.00,VWS V14.01,2013-02-18 16:05:00,
2013-02-18 11:10:00,24.3,-0.6,29.90,NNW,329,18.0,20.0,33,0.00,,OVC021,0.00,603.00,VWS V14.01,2013-02-18 16:10:00,
2013-02-18 11:15:00,24.6,0.2,29.90,NW,314,18.0,19.0,34,0.00,,OVC021,0.00,605.00,VWS V14.01,2013-02-18 16:15:00,
2013-02-18 11:20:00,24.4,-1.2,29.89,West,275,23.0,28.0,32,0.00,,OVC021,0.00,610.00,VWS V14.01,2013-02-18 16:20:00,
2013-02-18 11:25:00,24.4,-0.6,29.90,West,281,25.0,30.0,33,0.00,,OVC021,0.00,612.00,VWS V14.01,2013-02-18 16:25:00,
2013-02-18 11:30:00,24.9,0.5,29.90,WNW,288,16.0,19.0,34,0.00,,OVC021,0.00,610.00,VWS V14.01,2013-02-18 16:30:00,
2013-02-18 11:35:00,25.0,-1.4,29.90,WNW,294,18.0,28.0,31,0.00,,OVC021,0.00,612.00,VWS V14.01,2013-02-18 16:35:00,
2013-02-18 11:36:00,24.9,-0.8,29.90,NW,311,12.0,30.0,32,0.00,,OVC021,0.00,612.00,VWS V14.01,2013-02-18 16:36:00,
2013-02-18 11:40:00,25.0,-1.4,29.90,WNW,297,11.0,30.0,31,0.00,,OVC021,0.00,612.00,VWS V14.01,2013-02-18 16:40:00,
2013-02-18 11:41:00,25.3,-0.4,29.90,WNW,288,10.0,23.0,32,0.00,,OVC021,0.00,612.00,VWS V14.01,2013-02-18 16:41:00,
2013-02-18 11:45:00,25.4,-0.3,29.90,WNW,288,24.0,24.0,32,0.00,,OVC021,0.00,613.00,VWS V14.01,2013-02-18 16:45:00,
2013-02-18 11:46:00,25.5,-0.9,29.91,WNW,296,11.0,24.0,31,0.00,,OVC021,0.00,613.00,VWS V14.01,2013-02-18 16:46:00,
2013-02-18 11:50:00,25.8,0.0,29.90,WNW,298,12.0,24.0,32,0.00,,OVC021,0.00,612.00,VWS V14.01,2013-02-18 16:50:00,
2013-02-18 11:51:00,26.0,-1.2,29.91,NW,310,18.0,19.0,30,0.00,,OVC021,0.00,612.00,VWS V14.01,2013-02-18 16:51:00,
2013-02-18 11:55:00,26.1,-1.1,29.91,NW,311,10.0,20.0,30,0.00,,OVC021,0.00,612.00,VWS V14.01,2013-02-18 16:55:00,
2013-02-18 11:56:00,26.2,-0.3,29.91,WNW,302,10.0,21.0,31,0.00,,OVC021,0.00,610.00,VWS V14.01,2013-02-18 16:56:00,
2013-02-18 12:00:00,26.3,-0.9,29.91,NNW,336,15.0,28.0,30,0.00,,OVC021,0.00,610.00,VWS V14.01,2013-02-18 17:00:00,
2013-02-18 12:02:00,26.3,-1.6,29.91,NNW,339,22.0,23.0,29,0.00,,OVC021,0.00,610.00,VWS V14.01,2013-02-18 17:02:00,
2013-02-18 12:05:00,26.3,-1.6,29.91,NW,314,13.0,25.0,29,0.00,,OVC021,0.00,610.00,VWS V14.01,2013-02-18 17:05:00,
2013-02-18 12:07:00,26.5,-1.5,29.91,West,279,11.0,20.0,29,0.00,,OVC021,0.00,610.00,VWS V14.01,2013-02-18 17:07:00,
2013-02-18 12:10:00,26.6,-1.4,29.91,WNW,303,11.0,20.0,29,0.00,,OVC021,0.00,608.00,VWS V14.01,2013-02-18 17:10:00,
2013-02-18 12:12:00,26.7,-2.0,29.91,NNW,327,12.0,22.0,28,0.00,,OVC021,0.00,608.00,VWS V14.01,2013-02-18 17:12:00,
2013-02-18 12:15:00,26.7,-1.3,29.91,NW,304,12.0,22.0,29,0.00,,OVC021,0.00,606.00,VWS V14.01,2013-02-18 17:15:00,
2013-02-18 12:17:00,26.8,-0.5,29.91,NW,319,8.0,19.0,30,0.00,,OVC021,0.00,605.00,VWS V14.01,2013-02-18 17:17:00,
2013-02-18 12:20:00,27.0,-0.3,29.91,West,265,13.0,19.0,30,0.00,,OVC021,0.00,605.00,VWS V14.01,2013-02-18 17:20:00,
2013-02-18 12:22:00,27.2,-1.6,29.91,West,268,9.0,17.0,28,0.00,,OVC021,0.00,601.00,VWS V14.01,2013-02-18 17:22:00,
2013-02-18 12:25:00,27.3,-0.8,29.91,WNW,300,6.0,17.0,29,0.00,,OVC021,0.00,601.00,VWS V14.01,2013-02-18 17:25:00,
2013-02-18 12:27:00,27.2,-2.3,29.91,NW,319,11.0,23.0,27,0.00,,OVC021,0.00,598.00,VWS V14.01,2013-02-18 17:27:00,
2013-02-18 12:30:00,27.2,-1.6,29.91,WNW,290,10.0,23.0,28,0.00,,OVC021,0.00,599.00,VWS V14.01,2013-02-18 17:30:00,
2013-02-18 12:32:00,27.2,-2.3,29.91,WNW,292,13.0,27.0,27,0.00,,OVC021,0.00,594.00,VWS V14.01,2013-02-18 17:32:00,
2013-02-18 12:35:00,27.1,-1.7,29.91,NW,312,10.0,27.0,28,0.00,,OVC021,0.00,594.00,VWS V14.01,2013-02-18 17:35:00,
2013-02-18 12:37:00,27.3,-1.5,29.91,West,267,28.0,28.0,28,0.00,,OVC021,0.00,529.00,VWS V14.01,2013-02-18 17:37:00,
2013-02-18 12:40:00,27.3,-1.5,29.91,WNW,286,11.0,28.0,28,0.00,,OVC021,0.00,503.00,VWS V14.01,2013-02-18 17:40:00,
2013-02-18 12:43:00,26.9,-1.8,29.92,NW,306,15.0,27.0,28,0.00,,OVC021,0.00,308.00,VWS V14.01,2013-02-18 17:43:00,
2013-02-18 12:45:00,26.9,-1.8,29.92,North,355,18.0,27.0,28,0.00,,OVC021,0.00,265.00,VWS V14.01,2013-02-18 17:45:00,
2013-02-18 12:48:00,27.1,-1.7,29.91,NW,317,14.0,21.0,28,0.00,,OVC021,0.00,69.00,VWS V14.01,2013-02-18 17:48:00,
2013-02-18 12:50:00,27.1,-1.7,29.91,NW,315,13.0,21.0,28,0.00,,OVC021,0.00,69.00,VWS V14.01,2013-02-18 17:50:00,
2013-02-18 12:53:00,27.5,-1.3,29.91,NW,318,13.0,29.0,28,0.00,,OVC021,0.00,37.00,VWS V14.01,2013-02-18 17:53:00,
2013-02-18 12:55:00,27.5,-1.3,29.91,NW,318,13.0,29.0,28,0.00,,OVC021,0.00,37.00,VWS V14.01,2013-02-18 17:55:00,
2013-02-18 12:58:00,27.8,-1.8,29.92,West,277,21.0,27.0,27,0.00,,OVC021,0.00,37.00,VWS V14.01,2013-02-18 17:58:00,
2013-02-18 13:00:00,27.8,-1.8,29.92,West,277,21.0,27.0,27,0.00,,OVC021,0.00,37.00,VWS V14.01,2013-02-18 18:00:00,
2013-02-18 13:03:00,27.5,-2.1,29.91,NW,311,11.0,16.0,27,0.00,,OVC021,0.00,37.00,VWS V14.01,2013-02-18 18:03:00,
2013-02-18 13:05:00,27.5,-2.1,29.91,WNW,283,15.0,24.0,27,0.00,,OVC021,0.00,37.00,VWS V14.01,2013-02-18 18:05:00,
2013-02-18 13:09:00,27.9,-1.0,29.92,WNW,288,26.0,26.0,28,0.00,,OVC021,0.00,37.00,VWS V14.01,2013-02-18 18:09:00,
2013-02-18 13:10:00,27.9,-1.0,29.91,WNW,284,11.0,18.0,28,0.00,,OVC021,0.00,37.00,VWS V14.01,2013-02-18 18:10:00,
2013-02-18 13:14:00,28.0,-1.6,29.91,NW,313,9.0,23.0,27,0.00,,OVC021,0.00,37.00,VWS V14.01,2013-02-18 18:14:00,
2013-02-18 13:15:00,28.0,-1.6,29.91,West,277,12.0,26.0,27,0.00,,OVC021,0.00,37.00,VWS V14.01,2013-02-18 18:15:00,
2013-02-18 13:19:00,28.3,-1.4,29.91,NW,310,12.0,18.0,27,0.00,,OVC021,0.00,37.00,VWS V14.01,2013-02-18 18:19:00,
2013-02-18 13:20:00,28.2,-2.3,29.91,West,266,15.0,23.0,26,0.00,,OVC021,0.00,37.00,VWS V14.01,2013-02-18 18:20:00,
2013-02-18 13:24:00,28.5,-1.2,29.91,WNW,296,7.0,13.0,27,0.00,,OVC021,0.00,37.00,VWS V14.01,2013-02-18 18:24:00,
2013-02-18 13:25:00,28.4,-1.3,29.92,West,281,7.0,21.0,27,0.00,,OVC021,0.00,37.00,VWS V14.01,2013-02-18 18:25:00,
2013-02-18 13:29:00,28.7,-1.8,29.92,West,277,19.0,25.0,26,0.00,,OVC021,0.00,35.00,VWS V14.01,2013-02-18 18:29:00,
2013-02-18 13:30:00,28.7,-1.8,29.92,West,259,10.0,20.0,26,0.00,,OVC021,0.00,35.00,VWS V14.01,2013-02-18 18:30:00,
2013-02-18 13:35:00,28.4,-2.9,29.92,WNW,291,6.0,26.0,25,0.00,,OVC021,0.00,35.00,VWS V14.01,2013-02-18 18:35:00,
2013-02-18 13:40:00,28.6,-1.1,29.92,West,278,13.0,23.0,27,0.00,,OVC021,0.00,35.00,VWS V14.01,2013-02-18 18:40:00,
2013-02-18 13:45:00,28.4,-2.1,29.92,WNW,290,14.0,26.0,26,0.00,,OVC021,0.00,35.00,VWS V14.01,2013-02-18 18:45:00,
2013-02-18 13:50:00,28.5,-1.2,29.92,NNW,333,14.0,17.0,27,0.00,,OVC021,0.00,35.00,VWS V14.01,2013-02-18 18:50:00,
2013-02-18 13:55:00,29.0,-0.8,29.92,NW,304,7.0,12.0,27,0.00,,OVC021,0.00,35.00,VWS V14.01,2013-02-18 18:55:00,
2013-02-18 14:00:00,29.4,0.3,29.92,NW,306,9.0,12.0,28,0.00,,OVC021,0.00,35.00,VWS V14.01,2013-02-18 19:00:00,
2013-02-18 14:01:00,29.6,-0.3,29.92,WNW,301,10.0,18.0,27,0.00,,OVC021,0.00,35.00,VWS V14.01,2013-02-18 19:01:00,
2013-02-18 14:05:00,29.6,0.5,29.92,NNW,342,6.0,18.0,28,0.00,,OVC021,0.00,35.00,VWS V14.01,2013-02-18 19:05:00,
2013-02-18 14:06:00,29.7,-0.2,29.93,NW,306,17.0,19.0,27,0.00,,OVC021,0.00,35.00,VWS V14.01,2013-02-18 19:06:00,
2013-02-18 14:10:00,29.4,-2.1,29.93,West,279,8.0,22.0,25,0.00,,OVC021,0.00,35.00,VWS V14.01,2013-02-18 19:10:00,
2013-02-18 14:11:00,29.0,-1.6,29.93,NW,313,14.0,22.0,26,0.00,,OVC021,0.00,35.00,VWS V14.01,2013-02-18 19:11:00,
2013-02-18 14:15:00,29.0,-1.6,29.93,NW,324,10.0,23.0,26,0.00,,OVC021,0.00,35.00,VWS V14.01,2013-02-18 19:15:00,
2013-02-18 14:16:00,29.1,-0.7,29.93,West,278,17.0,23.0,27,0.00,,OVC021,0.00,35.00,VWS V14.01,2013-02-18 19:16:00,
2013-02-18 14:20:00,28.9,-1.7,29.93,WNW,300,10.0,23.0,26,0.00,,OVC021,0.00,35.00,VWS V14.01,2013-02-18 19:20:00,
2013-02-18 14:21:00,28.9,-1.7,29.93,WSW,245,11.0,18.0,26,0.00,,OVC021,0.00,58.00,VWS V14.01,2013-02-18 19:21:00,
2013-02-18 14:25:00,28.9,-0.9,29.93,WNW,298,9.0,20.0,27,0.00,,OVC021,0.00,81.00,VWS V14.01,2013-02-18 19:25:00,
2013-02-18 14:26:00,28.9,-1.7,29.93,NW,306,16.0,22.0,26,0.00,,OVC021,0.00,134.00,VWS V14.01,2013-02-18 19:26:00,
2013-02-18 14:30:00,28.9,-1.7,29.94,NW,313,6.0,22.0,26,0.00,,OVC021,0.00,181.00,VWS V14.01,2013-02-18 19:30:00,
2013-02-18 14:32:00,28.7,-1.8,29.93,WNW,296,13.0,25.0,26,0.00,,OVC021,0.00,230.00,VWS V14.01,2013-02-18 19:32:00,
2013-02-18 14:35:00,28.5,-1.2,29.94,WNW,294,7.0,25.0,27,0.00,,OVC021,0.00,232.00,VWS V14.01,2013-02-18 19:35:00,
2013-02-18 14:37:00,28.2,-2.3,29.94,NW,304,10.0,25.0,26,0.00,,OVC021,0.00,241.00,VWS V14.01,2013-02-18 19:37:00,
2013-02-18 14:40:00,28.1,-1.6,29.94,West,281,10.0,25.0,27,0.00,,OVC021,0.00,223.00,VWS V14.01,2013-02-18 19:40:00,
2013-02-18 14:42:00,28.0,-2.4,29.94,WNW,290,13.0,21.0,26,0.00,,OVC021,0.00,169.00,VWS V14.01,2013-02-18 19:42:00,
2013-02-18 14:45:00,27.9,-2.5,29.94,WNW,288,9.0,21.0,26,0.00,,OVC021,0.00,158.00,VWS V14.01,2013-02-18 19:45:00,
2013-02-18 14:47:00,27.9,-1.7,29.94,WNW,293,10.0,22.0,27,0.00,,OVC021,0.00,156.00,VWS V14.01,2013-02-18 19:47:00,
2013-02-18 14:50:00,27.9,-1.7,29.94,WSW,257,8.0,22.0,27,0.00,,OVC021,0.00,144.00,VWS V14.01,2013-02-18 19:50:00,
2013-02-18 14:52:00,28.2,-1.5,29.94,NNW,331,20.0,21.0,27,0.00,,OVC021,0.00,149.00,VWS V14.01,2013-02-18 19:52:00,
2013-02-18 14:55:00,28.3,-1.4,29.94,WNW,299,9.0,21.0,27,0.00,,OVC021,0.00,155.00,VWS V14.01,2013-02-18 19:55:00,
2013-02-18 14:57:00,28.4,-2.1,29.94,West,271,22.0,23.0,26,0.00,,OVC021,0.00,160.00,VWS V14.01,2013-02-18 19:57:00,
2013-02-18 15:00:00,28.4,-2.1,29.94,West,271,12.0,23.0,26,0.00,,OVC021,0.00,211.00,VWS V14.01,2013-02-18 20:00:00,
2013-02-18 15:02:00,28.5,-2.0,29.94,West,270,18.0,22.0,26,0.00,,OVC021,0.00,278.00,VWS V14.01,2013-02-18 20:02:00,
2013-02-18 15:05:00,28.5,-2.0,29.94,West,273,17.0,23.0,26,0.00,,OVC021,0.00,301.00,VWS V14.01,2013-02-18 20:05:00,
2013-02-18 15:08:00,28.4,-2.1,29.94,WNW,296,13.0,23.0,26,0.00,,OVC021,0.00,308.00,VWS V14.01,2013-02-18 20:08:00,
2013-02-18 15:10:00,28.4,-2.1,29.94,West,274,13.0,23.0,26,0.00,,OVC021,0.00,309.00,VWS V14.01,2013-02-18 20:10:00,
2013-02-18 15:13:00,28.5,-2.0,29.95,WNW,290,12.0,25.0,26,0.00,,OVC021,0.00,308.00,VWS V14.01,2013-02-18 20:13:00,
2013-02-18 15:15:00,28.5,-2.0,29.95,WNW,294,9.0,25.0,26,0.00,,OVC021,0.00,308.00,VWS V14.01,2013-02-18 20:15:00,
2013-02-18 15:18:00,28.7,-1.8,29.95,NW,312,20.0,23.0,26,0.00,,OVC021,0.00,295.00,VWS V14.01,2013-02-18 20:18:00,
2013-02-18 15:20:00,28.7,-1.8,29.95,NW,312,20.0,23.0,26,0.00,,OVC021,0.00,295.00,VWS V14.01,2013-02-18 20:20:00,
2013-02-18 15:23:00,28.6,-1.9,29.95,West,263,12.0,12.0,26,0.00,,OVC021,0.00,281.00,VWS V14.01,2013-02-18 20:23:00,
2013-02-18 15:25:00,28.6,-1.9,29.95,West,265,10.0,24.0,26,0.00,,OVC021,0.00,281.00,VWS V14.01,2013-02-18 20:25:00,
2013-02-18 15:28:00,28.7,-2.7,29.95,WNW,292,13.0,18.0,25,0.00,,OVC021,0.00,267.00,VWS V14.01,2013-02-18 20:28:00,
2013-02-18 15:30:00,28.7,-2.7,29.95,WNW,292,13.0,18.0,25,0.00,,OVC021,0.00,267.00,VWS V14.01,2013-02-18 20:30:00,
2013-02-18 15:33:00,29.1,-1.5,29.95,West,269,4.0,16.0,26,0.00,,OVC021,0.00,253.00,VWS V14.01,2013-02-18 20:33:00,
2013-02-18 15:35:00,29.1,-1.5,29.95,West,269,4.0,16.0,26,0.00,,OVC021,0.00,253.00,VWS V14.01,2013-02-18 20:35:00,
2013-02-18 15:38:00,29.4,-2.1,29.95,WNW,286,10.0,17.0,25,0.00,,OVC021,0.00,239.00,VWS V14.01,2013-02-18 20:38:00,
2013-02-18 15:40:00,29.4,-2.1,29.95,WNW,286,10.0,17.0,25,0.00,,OVC021,0.00,239.00,VWS V14.01,2013-02-18 20:40:00,
2013-02-18 15:43:00,29.3,-2.2,29.95,WNW,285,7.0,10.0,25,0.00,,OVC021,0.00,225.00,VWS V14.01,2013-02-18 20:43:00,
2013-02-18 15:45:00,29.3,-2.2,29.95,WNW,300,10.0,22.0,25,0.00,,OVC021,0.00,225.00,VWS V14.01,2013-02-18 20:45:00,
2013-02-18 15:48:00,29.4,-2.9,29.96,NNW,334,8.0,8.0,24,0.00,,OVC021,0.00,209.00,VWS V14.01,2013-02-18 20:48:00,
2013-02-18 15:50:00,29.4,-2.9,29.96,NW,320,8.0,15.0,24,0.00,,OVC021,0.00,213.00,VWS V14.01,2013-02-18 20:50:00,
2013-02-18 15:53:00,29.3,-2.2,29.95,WNW,294,7.0,20.0,25,0.00,,OVC021,0.00,197.00,VWS V14.01,2013-02-18 20:53:00,
2013-02-18 15:55:00,29.3,-2.2,29.95,WNW,294,7.0,20.0,25,0.00,,OVC021,0.00,197.00,VWS V14.01,2013-02-18 20:55:00,
2013-02-18 15:58:00,29.3,-3.0,29.96,WNW,300,19.0,20.0,24,0.00,,OVC021,0.00,181.00,VWS V14.01,2013-02-18 20:58:00,
2013-02-18 16:00:00,29.3,-3.0,29.96,WNW,300,19.0,20.0,24,0.00,,OVC021,0.00,181.00,VWS V14.01,2013-02-18 21:00:00,
2013-02-18 16:03:00,29.2,-3.1,29.96,West,276,13.0,19.0,24,0.00,,OVC021,0.00,162.00,VWS V14.01,2013-02-18 21:03:00,
2013-02-18 16:05:00,29.2,-3.1,29.96,West,276,13.0,19.0,24,0.00,,OVC021,0.00,162.00,VWS V14.01,2013-02-18 21:05:00,
2013-02-18 16:08:00,29.3,-3.0,29.96,WNW,296,7.0,19.0,24,0.00,,OVC021,0.00,146.00,VWS V14.01,2013-02-18 21:08:00,
2013-02-18 16:10:00,29.3,-3.0,29.96,WNW,296,7.0,19.0,24,0.00,,OVC021,0.00,146.00,VWS V14.01,2013-02-18 21:10:00,
2013-02-18 16:13:00,29.4,-3.8,29.96,WNW,298,9.0,16.0,23,0.00,,OVC021,0.00,128.00,VWS V14.01,2013-02-18 21:13:00,
2013-02-18 16:15:00,29.3,-3.9,29.96,West,267,15.0,20.0,23,0.00,,OVC021,0.00,128.00,VWS V14.01,2013-02-18 21:15:00,
2013-02-18 16:18:00,29.5,-2.8,29.96,NW,316,9.0,10.0,24,0.00,,OVC021,0.00,111.00,VWS V14.01,2013-02-18 21:18:00,
2013-02-18 16:20:00,29.5,-2.8,29.96,NW,325,5.0,18.0,24,0.00,,OVC021,0.00,111.00,VWS V14.01,2013-02-18 21:20:00,
2013-02-18 16:24:00,29.6,-2.8,29.97,NW,311,13.0,15.0,24,0.00,,OVC021,0.00,95.00,VWS V14.01,2013-02-18 21:24:00,
2013-02-18 16:25:00,29.6,-2.8,29.97,North,351,9.0,15.0,24,0.00,,OVC021,0.00,97.00,VWS V14.01,2013-02-18 21:25:00,
2013-02-18 16:29:00,29.5,-3.7,29.97,NW,308,5.0,15.0,23,0.00,,OVC021,0.00,79.00,VWS V14.01,2013-02-18 21:29:00,
2013-02-18 16:30:00,29.5,-3.7,29.97,WNW,303,9.0,22.0,23,0.00,,OVC021,0.00,81.00,VWS V14.01,2013-02-18 21:30:00,
2013-02-18 16:34:00,29.5,-3.7,29.97,NW,307,7.0,13.0,23,0.00,,OVC021,0.00,65.00,VWS V14.01,2013-02-18 21:34:00,
2013-02-18 16:35:00,29.5,-3.7,29.97,NNW,329,10.0,19.0,23,0.00,,OVC021,0.00,67.00,VWS V14.01,2013-02-18 21:35:00,
2013-02-18 16:39:00,29.5,-3.7,29.97,NW,306,19.0,19.0,23,0.00,,OVC021,0.00,49.00,VWS V14.01,2013-02-18 21:39:00,
2013-02-18 16:40:00,29.5,-2.8,29.97,WNW,289,11.0,16.0,24,0.00,,OVC021,0.00,53.00,VWS V14.01,2013-02-18 21:40:00,
2013-02-18 16:44:00,29.4,-3.8,29.97,NW,307,12.0,15.0,23,0.00,,OVC021,0.00,39.00,VWS V14.01,2013-02-18 21:44:00,
2013-02-18 16:45:00,29.4,-3.8,29.98,NW,315,11.0,22.0,23,0.00,,OVC021,0.00,40.00,VWS V14.01,2013-02-18 21:45:00,
2013-02-18 16:49:00,29.4,-3.8,29.98,NW,325,18.0,21.0,23,0.00,,OVC021,0.00,26.00,VWS V14.01,2013-02-18 21:49:00,
2013-02-18 16:50:00,29.4,-3.8,29.97,NNW,333,8.0,15.0,23,0.00,,OVC021,0.00,30.00,VWS V14.01,2013-02-18 21:50:00,
2013-02-18 16:55:00,29.3,-3.0,29.98,WNW,295,15.0,17.0,24,0.00,,OVC021,0.00,19.00,VWS V14.01,2013-02-18 21:55:00,
2013-02-18 17:00:00,29.3,-3.0,29.97,WNW,289,8.0,12.0,24,0.00,,OVC021,0.00,14.00,VWS V14.01,2013-02-18 22:00:00,
2013-02-18 17:05:00,29.1,-4.1,29.97,NW,309,9.0,16.0,23,0.00,,OVC021,0.00,12.00,VWS V14.01,2013-02-18 22:05:00,
2013-02-18 17:10:00,29.0,-4.2,29.97,NW,316,8.0,13.0,23,0.00,,OVC021,0.00,9.00,VWS V14.01,2013-02-18 22:10:00,
2013-02-18 17:15:00,28.8,-3.4,29.98,WNW,297,9.0,10.0,24,0.00,,OVC021,0.00,5.00,VWS V14.01,2013-02-18 22:15:00,
2013-02-18 17:20:00,28.6,-3.6,29.98,West,269,15.0,16.0,24,0.00,,OVC021,0.00,0.00,VWS V14.01,2013-02-18 22:20:00,
2013-02-18 17:25:00,28.6,-3.6,29.98,West,274,8.0,11.0,24,0.00,,OVC021,0.00,0.00,VWS V14.01,2013-02-18 22:25:00,
2013-02-18 17:30:00,28.3,-3.0,29.98,West,266,7.0,11.0,25,0.00,,OVC021,0.00,0.00,VWS V14.01,2013-02-18 22:30:00,
2013-02-18 17:35:00,28.2,-2.3,29.98,West,272,6.0,11.0,26,0.00,,OVC021,0.00,0.00,VWS V14.01,2013-02-18 22:35:00,
2013-02-18 17:36:00,28.0,-1.6,29.99,WSW,249,9.0,11.0,27,0.00,,OVC021,0.00,0.00,VWS V14.01,2013-02-18 22:36:00,
2013-02-18 17:40:00,27.9,-1.7,29.98,WNW,283,3.0,11.0,27,0.00,,OVC021,0.00,0.00,VWS V14.01,2013-02-18 22:40:00,
2013-02-18 17:41:00,27.8,-1.1,29.99,WSW,246,7.0,10.0,28,0.00,,OVC021,0.00,0.00,VWS V14.01,2013-02-18 22:41:00,
2013-02-18 17:45:00,27.7,-1.1,29.99,West,273,2.0,10.0,28,0.00,,OVC021,0.00,0.00,VWS V14.01,2013-02-18 22:45:00,
2013-02-18 17:46:00,27.5,-0.6,29.99,West,270,3.0,6.0,29,0.00,,OVC021,0.00,0.00,VWS V14.01,2013-02-18 22:46:00,
2013-02-18 17:50:00,27.4,-0.7,30.00,WSW,241,9.0,9.0,29,0.00,,OVC021,0.00,0.00,VWS V14.01,2013-02-18 22:50:00,
2013-02-18 17:51:00,27.3,-0.8,30.00,West,271,2.0,10.0,29,0.00,,OVC021,0.00,0.00,VWS V14.01,2013-02-18 22:51:00,
2013-02-18 17:55:00,27.3,-0.8,30.00,West,265,4.0,10.0,29,0.00,,OVC021,0.00,0.00,VWS V14.01,2013-02-18 22:55:00,
2013-02-18 17:56:00,27.2,-0.8,30.00,West,272,2.0,5.0,29,0.00,,OVC021,0.00,0.00,VWS V14.01,2013-02-18 22:56:00,
2013-02-18 18:00:00,27.1,-0.9,30.00,WNW,286,6.0,6.0,29,0.00,,OVC021,0.00,0.00,VWS V14.01,2013-02-18 23:00:00,
2013-02-18 18:01:00,27.1,-0.9,30.00,WSW,248,5.0,7.0,29,0.00,,OVC021,0.00,0.00,VWS V14.01,2013-02-18 23:01:00,
2013-02-18 18:05:00,27.1,-0.9,30.00,SW,215,2.0,7.0,29,0.00,,OVC021,0.00,0.00,VWS V14.01,2013-02-18 23:05:00,
2013-02-18 18:06:00,27.1,-0.9,30.01,WSW,255,1.0,4.0,29,0.00,,OVC021,0.00,0.00,VWS V14.01,2013-02-18 23:06:00,
2013-02-18 18:10:00,27.0,-1.0,30.01,WSW,247,3.0,4.0,29,0.00,,OVC021,0.00,0.00,VWS V14.01,2013-02-18 23:10:00,
2013-02-18 18:11:00,27.0,-1.0,30.01,SW,231,3.0,7.0,29,0.00,,OVC021,0.00,0.00,VWS V14.01,2013-02-18 23:11:00,
2013-02-18 18:15:00,26.9,-1.1,30.01,WSW,240,3.0,8.0,29,0.00,,OVC021,0.00,0.00,VWS V14.01,2013-02-18 23:15:00,
2013-02-18 18:16:00,26.9,-1.1,30.01,West,261,4.0,9.0,29,0.00,,OVC021,0.00,0.00,VWS V14.01,2013-02-18 23:16:00,
2013-02-18 18:20:00,26.8,-1.2,30.01,WSW,250,4.0,9.0,29,0.00,,OVC021,0.00,0.00,VWS V14.01,2013-02-18 23:20:00,
2013-02-18 18:22:00,26.7,-1.3,30.01,WSW,250,2.0,6.0,29,0.00,,OVC021,0.00,0.00,VWS V14.01,2013-02-18 23:22:00,
2013-02-18 18:25:00,26.7,-1.3,30.01,WSW,246,6.0,6.0,29,0.00,,OVC021,0.00,0.00,VWS V14.01,2013-02-18 23:25:00,
2013-02-18 18:27:00,26.6,-0.6,30.02,WSW,240,2.0,8.0,30,0.00,,OVC021,0.00,0.00,VWS V14.01,2013-02-18 23:27:00,
2013-02-18 18:30:00,26.5,-0.7,30.02,WSW,249,2.0,8.0,30,0.00,,OVC021,0.00,0.00,VWS V14.01,2013-02-18 23:30:00,
2013-02-18 18:33:00,26.4,-0.8,30.02,WSW,244,5.0,7.0,30,0.00,,OVC021,0.00,0.00,VWS V14.01,2013-02-18 23:33:00,
2013-02-18 18:35:00,26.4,-0.8,30.02,WSW,244,6.0,7.0,30,0.00,,OVC021,0.00,0.00,VWS V14.01,2013-02-18 23:35:00,
2013-02-18 18:38:00,26.2,-1.0,30.02,West,264,5.0,7.0,30,0.00,,OVC021,0.00,0.00,VWS V14.01,2013-02-18 23:38:00,
2013-02-18 18:40:00,26.2,-1.0,30.02,West,263,6.0,7.0,30,0.00,,OVC021,0.00,0.00,VWS V14.01,2013-02-18 23:40:00,
2013-02-18 18:43:00,26.2,-1.0,30.02,West,265,6.0,10.0,30,0.00,,OVC021,0.00,0.00,VWS V14.01,2013-02-18 23:43:00,
2013-02-18 18:45:00,26.2,-1.0,30.02,West,265,6.0,10.0,30,0.00,,OVC021,0.00,0.00,VWS V14.01,2013-02-18 23:45:00,
2013-02-18 18:48:00,26.2,-1.0,30.02,WNW,290,4.0,10.0,30,0.00,,OVC021,0.00,0.00,VWS V14.01,2013-02-18 23:48:00,
2013-02-18 18:50:00,26.2,-1.0,30.02,WNW,290,4.0,10.0,30,0.00,,OVC021,0.00,0.00,VWS V14.01,2013-02-18 23:50:00,
2013-02-18 18:53:00,26.1,-1.1,30.02,WNW,298,4.0,10.0,30,0.00,,OVC021,0.00,0.00,VWS V14.01,2013-02-18 23:53:00,
2013-02-18 18:55:00,26.1,-1.1,30.02,WNW,298,4.0,10.0,30,0.00,,OVC021,0.00,0.00,VWS V14.01,2013-02-18 23:55:00,
2013-02-18 18:58:00,26.1,-1.1,30.02,West,275,4.0,10.0,30,0.00,,OVC021,0.00,0.00,VWS V14.01,2013-02-18 23:58:00,
2013-02-18 19:00:00,26.1,-1.1,30.02,West,275,4.0,10.0,30,0.00,,OVC021,0.00,0.00,VWS V14.01,2013-02-19 00:00:00,
2013-02-18 19:05:00,26.0,-1.2,30.02,SW,234,5.0,10.0,30,0.00,,OVC021,0.00,0.00,VWS V14.01,2013-02-19 00:05:00,
2013-02-18 19:10:00,26.0,-1.2,30.02,WSW,256,9.0,14.0,30,0.00,,OVC021,0.00,0.00,VWS V14.01,2013-02-19 00:10:00,
2013-02-18 19:15:00,26.0,-0.5,30.03,WNW,284,6.0,12.0,31,0.00,,OVC021,0.00,0.00,VWS V14.01,2013-02-19 00:15:00,
2013-02-18 19:20:00,25.8,-0.6,30.03,West,281,7.0,10.0,31,0.00,,OVC021,0.00,0.00,VWS V14.01,2013-02-19 00:20:00,
2013-02-18 19:25:00,25.8,-0.6,30.03,WSW,258,4.0,8.0,31,0.00,,OVC021,0.00,0.00,VWS V14.01,2013-02-19 00:25:00,
2013-02-18 19:30:00,25.6,-0.2,30.03,WSW,249,4.0,6.0,32,0.00,,OVC021,0.00,0.00,VWS V14.01,2013-02-19 00:30:00,
2013-02-18 19:35:00,25.4,-0.3,30.03,West,263,1.0,8.0,32,0.00,,OVC021,0.00,0.00,VWS V14.01,2013-02-19 00:35:00,
2013-02-18 19:40:00,25.4,-0.3,30.04,WSW,246,2.0,10.0,32,0.00,,OVC021,0.00,0.00,VWS V14.01,2013-02-19 00:40:00,
2013-02-18 19:45:00,25.3,-0.4,30.04,WSW,250,2.0,7.0,32,0.00,,OVC021,0.00,0.00,VWS V14.01,2013-02-19 00:45:00,
2013-02-18 19:50:00,25.1,-0.6,30.04,SW,232,1.0,4.0,32,0.00,,OVC021,0.00,0.00,VWS V14.01,2013-02-19 00:50:00,
2013-02-18 19:55:00,24.9,-0.8,30.04,SW,231,5.0,7.0,32,0.00,,OVC021,0.00,0.00,VWS V14.01,2013-02-19 00:55:00,
2013-02-18 20:00:00,24.9,-0.1,30.04,West,266,7.0,8.0,33,0.00,,OVC021,0.00,0.00,VWS V14.01,2013-02-19 01:00:00,
2013-02-18 20:05:00,24.8,-0.2,30.05,West,269,3.0,8.0,33,0.00,,OVC021,0.00,0.00,VWS V14.01,2013-02-19 01:05:00,
2013-02-18 20:10:00,24.7,-0.3,30.05,West,265,7.0,9.0,33,0.00,,OVC021,0.00,0.00,VWS V14.01,2013-02-19 01:10:00,
2013-02-18 20:15:00,24.7,0.3,30.05,WSW,257,4.0,10.0,34,0.00,,OVC021,0.00,0.00,VWS V14.01,2013-02-19 01:15:00,
2013-02-18 20:20:00,24.6,0.2,30.05,WSW,254,6.0,9.0,34,0.00,,OVC021,0.00,0.00,VWS V14.01,2013-02-19 01:20:00,
2013-02-18 20:25:00,24.4,0.1,30.05,West,268,7.0,7.0,34,0.00,,OVC021,0.00,0.00,VWS V14.01,2013-02-19 01:25:00,
2013-02-18 20:30:00,24.4,0.1,30.05,West,278,5.0,8.0,34,0.00,,OVC021,0.00,0.00,VWS V14.01,2013-02-19 01:30:00,
2013-02-18 20:35:00,24.2,0.5,30.05,West,270,5.0,7.0,35,0.00,,OVC021,0.00,0.00,VWS V14.01,2013-02-19 01:35:00,
2013-02-18 20:40:00,24.0,0.9,30.05,West,259,6.0,9.0,36,0.00,,OVC021,0.00,0.00,VWS V14.01,2013-02-19 01:40:00,
2013-02-18 20:45:00,24.0,0.3,30.05,West,261,7.0,9.0,35,0.00,,OVC021,0.00,0.00,VWS V14.01,2013-02-19 01:45:00,
2013-02-18 20:50:00,23.9,0.2,30.05,West,260,5.0,9.0,35,0.00,,OVC021,0.00,0.00,VWS V14.01,2013-02-19 01:50:00,
2013-02-18 20:55:00,23.9,0.2,30.06,WSW,246,5.0,10.0,35,0.00,,OVC021,0.00,0.00,VWS V14.01,2013-02-19 01:55:00,
2013-02-18 21:00:00,23.9,0.2,30.06,WSW,250,3.0,9.0,35,0.00,,OVC021,0.00,0.00,VWS V14.01,2013-02-19 02:00:00,
2013-02-18 21:05:00,23.9,0.2,30.06,WSW,250,2.0,7.0,35,0.00,,OVC021,0.00,0.00,VWS V14.01,2013-02-19 02:05:00,
2013-02-18 21:10:00,23.8,0.8,30.06,WSW,257,3.0,6.0,36,0.00,,OVC021,0.00,0.00,VWS V14.01,2013-02-19 02:10:00,
2013-02-18 21:15:00,23.7,0.1,30.06,WSW,246,2.0,7.0,35,0.00,,OVC021,0.00,0.00,VWS V14.01,2013-02-19 02:15:00,
2013-02-18 21:20:00,23.6,0.6,30.06,SW,234,2.0,3.0,36,0.00,,OVC021,0.00,0.00,VWS V14.01,2013-02-19 02:20:00,
2013-02-18 21:25:00,23.5,0.5,30.06,SW,236,2.0,4.0,36,0.00,,OVC021,0.00,0.00,VWS V14.01,2013-02-19 02:25:00,
2013-02-18 21:30:00,23.4,0.4,30.06,West,277,1.0,7.0,36,0.00,,OVC021,0.00,0.00,VWS V14.01,2013-02-19 02:30:00,
2013-02-18 21:35:00,23.3,0.3,30.07,West,262,2.0,5.0,36,0.00,,OVC021,0.00,0.00,VWS V14.01,2013-02-19 02:35:00,
2013-02-18 21:40:00,23.2,0.2,30.07,WSW,248,2.0,7.0,36,0.00,,OVC021,0.00,0.00,VWS V14.01,2013-02-19 02:40:00,
2013-02-18 21:45:00,23.1,0.1,30.07,West,259,3.0,8.0,36,0.00,,OVC021,0.00,0.00,VWS V14.01,2013-02-19 02:45:00,
2013-02-18 21:50:00,23.0,0.0,30.07,West,273,3.0,6.0,36,0.00,,OVC021,0.00,0.00,VWS V14.01,2013-02-19 02:50:00,
2013-02-18 21:55:00,23.0,0.6,30.07,WSW,252,1.0,6.0,37,0.00,,OVC021,0.00,0.00,VWS V14.01,2013-02-19 02:55:00,
2013-02-18 22:00:00,22.8,0.4,30.07,WSW,252,0.0,4.0,37,0.00,,OVC021,0.00,0.00,VWS V14.01,2013-02-19 03:00:00,
2013-02-18 22:05:00,22.6,0.3,30.07,WSW,253,0.0,2.0,37,0.00,,OVC021,0.00,0.00,VWS V14.01,2013-02-19 03:05:00,
2013-02-18 22:10:00,22.4,0.1,30.07,West,279,1.0,3.0,37,0.00,,OVC021,0.00,0.00,VWS V14.01,2013-02-19 03:10:00,
2013-02-18 22:15:00,22.3,0.6,30.07,West,279,0.0,2.0,38,0.00,,OVC021,0.00,0.00,VWS V14.01,2013-02-19 03:15:00,
2013-02-18 22:20:00,22.3,0.6,30.07,WSW,244,2.0,5.0,38,0.00,,OVC021,0.00,0.00,VWS V14.01,2013-02-19 03:20:00,
2013-02-18 22:25:00,22.4,0.1,30.08,WSW,244,0.0,3.0,37,0.00,,OVC021,0.00,0.00,VWS V14.01,2013-02-19 03:25:00,
2013-02-18 22:30:00,22.4,0.6,30.08,West,263,1.0,3.0,38,0.00,,OVC021,0.00,0.00,VWS V14.01,2013-02-19 03:30:00,
2013-02-18 22:35:00,22.2,1.0,30.08,WSW,244,2.0,7.0,39,0.00,,OVC021,0.00,0.00,VWS V14.01,2013-02-19 03:35:00,
2013-02-18 22:40:00,22.0,0.8,30.08,WSW,251,4.0,7.0,39,0.00,,OVC021,0.00,0.00,VWS V14.01,2013-02-19 03:40:00,
2013-02-18 22:45:00,22.1,1.5,30.09,West,260,5.0,8.0,40,0.00,,OVC021,0.00,0.00,VWS V14.01,2013-02-19 03:45:00,
2013-02-18 22:50:00,22.1,1.5,30.09,WSW,239,4.0,8.0,40,0.00,,OVC021,0.00,0.00,VWS V14.01,2013-02-19 03:50:00,
2013-02-18 22:55:00,22.1,1.5,30.08,WSW,240,4.0,8.0,40,0.00,,OVC021,0.00,0.00,VWS V14.01,2013-02-19 03:55:00,
2013-02-18 23:00:00,22.1,2.0,30.08,West,279,5.0,8.0,41,0.00,,OVC021,0.00,0.00,VWS V14.01,2013-02-19 04:00:00,
2013-02-18 23:05:00,22.1,2.0,30.08,West,265,6.0,8.0,41,0.00,,OVC021,0.00,0.00,VWS V14.01,2013-02-19 04:05:00,
2013-02-18 23:10:00,22.2,2.1,30.08,West,259,6.0,10.0,41,0.00,,OVC021,0.00,0.00,VWS V14.01,2013-02-19 04:10:00,
2013-02-18 23:15:00,22.2,2.1,30.08,WSW,257,10.0,11.0,41,0.00,,OVC021,0.00,0.00,VWS V14.01,2013-02-19 04:15:00,
2013-02-18 23:20:00,22.3,2.2,30.08,WSW,244,4.0,11.0,41,0.00,,OVC021,0.00,0.00,VWS V14.01,2013-02-19 04:20:00,
2013-02-18 23:25:00,22.2,2.1,30.08,West,281,4.0,9.0,41,0.00,,OVC021,0.00,0.00,VWS V14.01,2013-02-19 04:25:00,
2013-02-18 23:30:00,22.2,2.1,30.09,WSW,244,3.0,9.0,41,0.00,,OVC021,0.00,0.00,VWS V14.01,2013-02-19 04:30:00,
2013-02-18 23:35:00,22.2,2.1,30.09,West,265,9.0,10.0,41,0.00,,OVC021,0.00,0.00,VWS V14.01,2013-02-19 04:35:00,
2013-02-18 23:40:00,22.2,2.1,30.09,West,265,4.0,9.0,41,0.00,,OVC021,0.00,0.00,VWS V14.01,2013-02-19 04:40:00,
2013-02-18 23:45:00,22.1,2.0,30.09,WSW,251,2.0,8.0,41,0.00,,OVC021,0.00,0.00,VWS V14.01,2013-02-19 04:45:00,
2013-02-18 23:50:00,22.0,2.4,30.09,WSW,253,6.0,8.0,42,0.00,,OVC021,0.00,0.00,VWS V14.01,2013-02-19 04:50:00,
2013-02-18 23:55:00,22.0,2.4,30.09,West,277,2.0,7.0,42,0.00,,OVC021,0.00,0.00,VWS V14.01,2013-02-19 04:55:00,